Regional Weather Roundup
Issued by NWS Upton, NY

Current Version | Previous Version | Text Only | Print | Product List | Glossary On
Versions: 1 2 3 4 5 6 7 8 9 10 11 12 13 14 15 16 17 18 19 20 21 22 23 24 25 26 27 28 29 30 31 32 33 34 35 36 37 38 39 40 41 42 43 44 45 46 47 48 49 50
000
ASUS41 KOKX 022208
RWROKX

REGIONAL WEATHER ROUNDUP
NATIONAL WEATHER SERVICE NEW YORK NY
600 PM EDT THU JUL 02 2015

NOTE: "FAIR" INDICATES FEW OR NO CLOUDS BELOW 12,000 FEET WITH NO
SIGNIFICANT WEATHER AND/OR OBSTRUCTIONS TO VISIBILITY.

NYZ071-072-176-178-NJZ106-104-022300-
NEW YORK CITY METRO AREA


CITY           SKY/WX    TMP DP  RH WIND       PRES   REMARKS
CENTRAL PARK   PTSUNNY   76  59  55 S3        29.89S
LAGUARDIA APRT CLOUDY    76  58  53 S7        29.86S
KENNEDY INTL   CLOUDY    72  60  66 SE5       29.88S
NEWARK/LIBERTY PTSUNNY   76  61  59 CALM      29.86S
BRNX BOT. GARD   N/A     75  61  60 NE2       29.88S
TETERBORO      CLOUDY    78  58  49 S5        29.85S
$$

NYZ177-179-078>081-022300-
LONG ISLAND NEW YORK

CITY           SKY/WX    TMP DP  RH WIND       PRES   REMARKS
FARMINGDALE    CLOUDY    72  61  68 S6        29.87F
ISLIP          CLOUDY    72  61  68 S6        29.86F
SHIRLEY        CLOUDY    71  60  68 SW6       29.88F
WESTHAMPTON    CLOUDY    69  60  73 CALM      29.89F
MONTAUK POINT    N/A     71  61  70 VRB6      29.89F
$$

NYZ052-065-067-022300-
HUDSON VALLEY

CITY           SKY/WX    TMP DP  RH WIND       PRES   REMARKS
WHITE PLAINS   PTSUNNY   76  57  51 CALM      29.87S
NEWBURGH       MOSUNNY   75  61  60 SW6       29.88F
MONTGOMERY     PTSUNNY   77  58  51 CALM      29.86F
POUGHKEEPSIE   PTSUNNY   77  57  50 CALM      29.85F
ALBANY         PTSUNNY   75  50  41 NW9       29.89S
$$

NJZ001-105-106-008-010-013-015-019>022-104-022300-
NEW JERSEY

CITY           SKY/WX    TMP DP  RH WIND       PRES   REMARKS
NEWARK/LIBERTY PTSUNNY   76  61  59 CALM      29.86S
TETERBORO      CLOUDY    78  58  49 S5        29.85S
CALDWELL       PTSUNNY   78  57  48 VRB3      29.86F
MORRISTOWN     CLOUDY    79  63  57 NE3       29.87S
SOMERVILLE     PTSUNNY   76  65  68 CALM      29.84F
SUSSEX         CLOUDY    74  61  63 CALM      29.88S
ANDOVER          N/A     72  64  76 CALM      29.88F
TRENTON        PTSUNNY   75  61  61 CALM      29.86F
MILLVILLE      CLOUDY    70  66  87 CALM      29.88S FOG
ATLANTIC CITY  NOT AVBL
WRIGHTSTOWN    PTSUNNY   71  65  82 S5        29.85F
TOMS RIVER     CLOUDY    70  64  83 CALM      29.88S
BELMAR         CLOUDY    70  61  73 CALM      29.87F
$$

PAZ047>061-062-071-022300-
EASTERN PENNSYLVANIA

CITY           SKY/WX    TMP DP  RH WIND       PRES   REMARKS
PHILADELPHIA   CLOUDY    75  63  66 CALM      29.87F
ALLENTOWN      CLOUDY    76  61  59 CALM      29.87F
SCRANTON       PTSUNNY   75  56  51 N5        29.90F
$$

CTZ002-004>006-009-010-012-RIZ004-006-007-MAZ004-011-015-022300-
SOUTHERN NEW ENGLAND
 IN CT

CITY           SKY/WX    TMP DP  RH WIND       PRES   REMARKS
BRADLEY INTL   PTSUNNY   76  56  49 SW6       29.86F
HARTFORD       CLOUDY    77  57  50 SW8       29.85F
DANBURY        CLOUDY    73  59  61 CALM      29.88F
WTRBRY/OXFORD  SUNNY     73  59  60 CALM      29.91F
BRIDGEPORT     CLOUDY    77  58  51 S8        29.86F
MERIDEN          N/A     76  62  62 S3        29.86F
NEW HAVEN      CLOUDY    77  58  51 S6        29.86F
CHESTER        FAIR      73  63  68 S3        29.89F
GROTON         CLOUDY    71  61  70 S6        29.87F
WILLIMANTIC    CLOUDY    77  59  53 NW3       29.87F

 IN RI

CITY           SKY/WX    TMP DP  RH WIND       PRES   REMARKS
PROVIDENCE     CLOUDY    78  59  51 NW7       29.87F
BLOCK ISLAND   CLOUDY    70  59  68 S9        29.89S
WESTERLY       CLOUDY    73  57  57 SW6       29.88F

 IN MA

CITY           SKY/WX    TMP DP  RH WIND       PRES   REMARKS
BOSTON         CLOUDY    77  56  48 W12G17    29.85F
WORCESTER      CLOUDY    73  55  53 SW5       29.90F
WESTFIELD      PTSUNNY   76  55  48 W3        29.87F
PROVINCETOWN   CLOUDY    72  12  10 SW10      29.87S
NANTUCKET      LGT RAIN  66  60  81 VRB3      29.89F
$$

ANZ330-335-338-340-345-350-353-355-022300-
COASTAL MARINE OBSERVATIONS


STATION/POSITION TIME  SKY/WX   TEMP    WIND        PRES    VSBY  WAVE
                                AIR SEA DIR/SP/G                  HT/PER
                 (UTC)          (F)     (DEG/KT/KT) (MB)    (MI)  (FT/S)
NY HARB ENTRANCE 2150            67 70  120/  4/  6 1010.8          3/ 8
4S FIRE IS       2103               69                N/A           4/ 8
20S FIRE ISLAND  2150            67 68  100/ 10/ 10 1010.7          3/ 8
GREAT SOUTH BAY  2100            69 75  210/  4/  8   N/A
23SW MTP         2150            67 66  180/  8/ 10 1011.5          4/ 9
HUDSON CANYON    NOT AVBL
KINGS POINT      2100            75 69  200/  3/  3 1010.7
CENTRAL LI SOUND NOT AVBL
EASTERN LI SOUND 2100            68 65  240/  4/  4   N/A
ROBBINS REEF     2100            70     160/ 12/ 14 1010.2
$$


>>>>>>>>>>>>>>>>>>>>>>>>>>>> KEY <<<<<<<<<<<<<<<<<<<<<<<<<<<
>                                                          <
>     SKY/WX - SKY CONDITION/PRESENT WEATHER               <
>     TMP    - TEMPERATURE IN FAHRENHEIT                   <
>     DP     - DEWPOINT IN FAHRENHEIT                      <
>     RH     - RELATIVE HUMIDITY IN PERCENT                <
>     WIND   - DIRECTION AND SPEED IN MPH                  <
>     PRES   - MEAN SEA LEVEL PRESSURE IN INCHES OF HG     <
>     WCI    - WIND CHILL INDEX                            <
>     VSB    - VISIBILITY IN MILES                         <
>     HX     - HEAT INDEX                                  <
>     TC     - TEMPERATURE IN CELSIUS                      <
>     VRB    - VARIABLE WIND DIRECTION                     <
>                                                          <
>>>>>>>>>>>>>>>>>>>>>>>>>>>> KEY <<<<<<<<<<<<<<<<<<<<<<<<<<<





USA.gov is the U.S. government's official web portal to all federal, state and local government web resources and services.